Regional Weather Roundup
Issued by NWS

Home | Current Version | Previous Version | Text Only | Print | Product List | Glossary On
Versions: 1 2 3 4 5 6 7 8 9 10 11 12 13 14 15 16 17 18 19 20 21 22 23 24 25 26 27 28 29 30 31 32 33 34 35 36 37 38 39 40 41 42 43 44 45 46 47 48 49 50
000
ASUS43 KFSD 310102
RWRSD

WEATHER ROUNDUP FOR SOUTH DAKOTA
NATIONAL WEATHER SERVICE SIOUX FALLS SD
800 PM CDT THU MAR 30 2017

NOTE: "FAIR" INDICATES FEW OR NO CLOUDS BELOW 12,000 FEET WITH NO
SIGNIFICANT WEATHER AND/OR OBSTRUCTIONS TO VISIBILITY.


SDZ001>005-009-010-012>017-310200-
NORTHWEST AND NORTH CENTRAL SOUTH DAKOTA

CITY           SKY/WX    TMP DP  RH WIND       PRES   REMARKS
BUFFALO          N/A     53  37  54 SE10      29.69R
FAITH            N/A     46  37  71 SE12      29.78R
MOBRIDGE       MOCLDY    48  34  58 SE5       29.81R
$$

SDZ012>016-024>037-041>051-057-063-072>074-310200-
SOUTHWEST AND SOUTH CENTRAL SOUTH DAKOTA

CITY           SKY/WX    TMP DP  RH WIND       PRES   REMARKS
RAPID CTY ARPT CLOUDY    49  35  58 E10       29.75R
PIERRE         CLOUDY    45  34  65 CALM      29.81R
CUSTER         CLOUDY    43  33  68 E7        29.76R
ELLSWORTH AFB  CLOUDY    49  36  59 E10       29.74R
PHILIP         CLOUDY    45  37  73 E12       29.78S
PINE RIDGE     CLOUDY    51  37  58 E9        29.73R
WINNER         CLOUDY    46  35  65 E8        29.81R
$$

SDZ004>011-016>023-039-040-310200-
NORTHEAST SOUTH DAKOTA

CITY           SKY/WX    TMP DP  RH WIND       PRES   REMARKS
ABERDEEN       CLOUDY    45  33  63 E8        29.86S
WATERTOWN      CLOUDY    42  36  79 NE6       29.83S
BROOKINGS      CLOUDY    43  37  79 N7        29.82R
SISSETON         N/A     45  36  70 CALM      29.85R
$$

SDZ017-020-022-023-036>040-048>070-310200-
SOUTHEAST SOUTH DAKOTA

CITY           SKY/WX    TMP DP  RH WIND       PRES   REMARKS
SIOUX FALLS    CLOUDY    44  39  82 NE8       29.82R
HURON          CLOUDY    45  37  73 E6        29.84R
CHAMBERLAIN    CLOUDY    46  36  67 NE5       29.83R
MITCHELL       CLOUDY    46  37  71 NE8       29.84R
YANKTON        CLOUDY    43  37  81 NE8       29.82R
$$

ABBREVIATIONS USED IN REMARKS
   TC - TEMPERATURE IN CELSIUS
  WCI - WIND CHILL INDEX
   HX - HEAT INDEX
  VSB - VISIBILITY





USA.gov is the U.S. government's official web portal to all federal, state and local government web resources and services.